Flag for West Bank Weather past 2 weeks in Nablus, West Bank

Now
52 °F

Clear.


Feels Like: 51 °F
Forecast: 45 / 58 °F
Wind: 3 mph from North

Location: Ben Gurion International Airport

Current Time: Mar 1, 2015 at 4:59:53 AM

Latest Report: Mar 1, 2015 at 4:20 AM


Visibility: 10 mi

Pressure: 30.09 "Hg

Humidity: 82%

Dew point: 46 °F

Location of NablusLocation

Historic Weather in Nablus — Graph

°F

Nablus temperature yesterday

Maximum temperature yesterday: 66 °F (at 10:20 AM)
Minimum temperature yesterday: 54 °F (at 11:20 PM)
Average temperature yesterday: 61 °F

Past Weeks' High & Low Weather Summary

 TemperatureHumidityPressure
High86 °F (Feb 27, 1:50 PM)94% (Feb 14, 4:50 AM)30.21 "Hg (Feb 14, 4:50 AM)
Low41 °F (Feb 19, 11:20 PM)19% (Feb 27, 11:50 AM)29.71 "Hg (Feb 20, 4:50 AM)
Average57 °F67%30.00 "Hg
* Reported Feb 14 3:20 AM — Mar 1 3:20 AM, Nablus, Weather by CustomWeather, © 2015

Note: Actual official high and low records may vary slightly from our data, if they occured in-between our weather recording intervals... More about our weather records

Advertising

Nablus weather history for previous 24 hours

 ConditionsComfort  
Time TempWeatherWind HumidityBarometerVisibility
3:20 AM
Sun, Mar 1
52 °FPassing clouds.5 mph82%30.09 "HgN/A
2:50 AM54 °FPassing clouds.5 mph77%30.09 "HgN/A
2:20 AM54 °FPassing clouds.3 mph77%30.09 "HgN/A
1:50 AM54 °FPassing clouds.5 mph77%30.12 "HgN/A
1:20 AM54 °FPassing clouds.5 mph82%30.12 "HgN/A
12:50 AM54 °FPassing clouds.2 mph82%30.12 "HgN/A
12:20 AM54 °FPassing clouds.5 mph82%30.12 "HgN/A
11:50 PM
Sat, Feb 28
54 °FPassing clouds.1 mph82%30.12 "HgN/A
11:20 PM54 °FPassing clouds.5 mph82%30.12 "HgN/A
10:50 PM55 °FPassing clouds.2 mph77%30.12 "HgN/A
10:20 PM55 °FPassing clouds.3 mph77%30.12 "HgN/A
9:50 PM57 °FPassing clouds.3 mph72%30.12 "HgN/A
9:20 PM57 °FPassing clouds.6 mph72%30.12 "HgN/A
8:50 PM57 °FClear.3 mph72%30.12 "Hg10 mi
8:20 PM57 °FClear.1 mph77%30.12 "Hg10 mi
7:50 PM59 °FPassing clouds.1 mph72%30.12 "HgN/A
7:20 PM59 °FPassing clouds.2 mph72%30.12 "HgN/A
6:50 PM59 °FPassing clouds.2 mph72%30.12 "HgN/A
6:20 PM61 °FClear.5 mph63%30.09 "Hg10 mi
5:50 PM61 °FClear.7 mph68%30.09 "Hg10 mi
5:20 PM63 °FSunny.7 mph59%30.09 "Hg10 mi
4:50 PM64 °FPassing clouds.9 mph56%30.09 "HgN/A
4:20 PM64 °FPassing clouds.9 mph56%30.09 "HgN/A
3:50 PM66 °FPassing clouds.10 mph52%30.09 "HgN/A
3:20 PM66 °FPassing clouds.12 mph52%30.09 "HgN/A
2:50 PM66 °FScattered clouds.8 mph52%30.09 "HgN/A
2:20 PM66 °FScattered clouds.12 mph52%30.09 "HgN/A
1:50 PM64 °FScattered clouds.13 mph60%30.09 "HgN/A
1:20 PM64 °FScattered clouds.10 mph60%30.09 "HgN/A
12:50 PM66 °FScattered clouds.12 mph56%30.09 "HgN/A
12:20 PM64 °FScattered clouds.12 mph60%30.09 "HgN/A
11:50 AM64 °FScattered clouds.14 mph64%30.09 "HgN/A
11:20 AM64 °FScattered clouds.14 mph64%30.09 "HgN/A
10:50 AM66 °FScattered clouds.12 mph60%30.09 "HgN/A
10:20 AM66 °FScattered clouds.12 mph64%30.09 "HgN/A
9:50 AM64 °FScattered clouds.9 mph64%30.09 "HgN/A
9:20 AM64 °FScattered clouds.12 mph68%30.09 "HgN/A
8:50 AM63 °FScattered clouds.10 mph73%30.09 "HgN/A
8:20 AM64 °FScattered clouds.7 mph73%30.09 "HgN/A
7:50 AM63 °FPassing clouds.3 mph77%30.09 "Hg5 mi
7:20 AM61 °FPassing clouds.3 mph83%30.07 "Hg6 mi
6:50 AM61 °FPassing clouds.3 mph83%30.07 "Hg6 mi
6:20 AM61 °FScattered clouds.5 mph83%30.07 "HgN/A
5:50 AM61 °FPassing clouds.6 mph83%30.07 "HgN/A
5:20 AM61 °FPassing clouds.8 mph83%30.04 "HgN/A
4:50 AM61 °FPassing clouds.6 mph83%30.01 "HgN/A
4:20 AM61 °FPassing clouds.8 mph83%30.01 "HgN/A
Weather by CustomWeather, © 2015

See weather overviewHow to use our weather pages